Middletown, RI

7:54 AM EST on January 18, 2017 (GMT -0500)
Newport State

Weather History for KUUU - July, 2013

Change the Weather History Date:

Monday, July 1, 2013

  Actual Average Record
Temperature  
Mean Temperature 70 °F -  
Max Temperature 75 °F 76 °F 91 °F (1964)
Min Temperature 68 °F 61 °F 46 °F (1963)
Cooling Degree Days 6    
Growing Degree Days 20 (Base 50)    
Moisture  
Dew Point 70 °F    
Average Humidity 97    
Maximum Humidity 100    
Minimum Humidity 91    
Precipitation  
Precipitation 0.20 in - - ()
Sea Level Pressure  
Sea Level Pressure 30.03 in    
Wind  
Wind Speed 7 mph (South)    
Max Wind Speed 10 mph    
Max Gust Speed 20 mph    
Visibility 3 miles    
Events Fog , Rain    
Averages and records for this station are not official NWS values.
T = Trace of Precipitation, MM = Missing Value Source: NWS Daily Summary

Daily Weather History Graph

Daily Weather History Graph

Search for Another Location

Airport or City:

Trip Planner

Search our weather history database for the weather conditions in past years. The results will help you decide how hot, cold, wet, or windy it might be!

Date:

Astronomy

Jul. 01, 2013 Rise Set
Actual Time 5:15 AM EDT 8:22 PM EDT
Civil Twilight 4:41 AM EDT 8:56 PM EDT
Nautical Twilight 3:57 AM EDT 9:39 PM EDT
Astronomical Twilight 3:06 AM EDT 10:31 PM EDT
Moon 12:46 AM EDT (7/1) 2:32 PM EDT (7/1)
Length of Visible Light 16h 15m
Length of Day
15h 07m
Waning Crescent, 35% of the Moon is Illuminated
Jul 1
Waning Crescent
Jul 8
New
Jul 15
First Quarter
Jul 22
Full
Jul 29
Last Quarter

Hourly Weather History & Observations

Time (EDT) Temp. Dew Point Humidity Pressure Visibility Wind Dir Wind Speed Gust Speed Precip Events Conditions
12:26 AM 69.8 °F 69.8 °F 100% 29.97 in 2.0 mi SSW 5.8 mph - N/A   Overcast
12:45 AM 69.8 °F 68.0 °F 94% 29.97 in 1.8 mi SSW 8.1 mph - N/A   Overcast
12:53 AM 69.1 °F 68.0 °F 96% 29.97 in 1.8 mi SSW 6.9 mph - N/A   Overcast
1:32 AM 68.0 °F 68.0 °F 100% 29.97 in 0.8 mi Variable 5.8 mph - N/A   Mist
1:53 AM 68.0 °F 68.0 °F 100% 29.97 in 0.5 mi SSW 5.8 mph - N/A Fog Fog
2:53 AM 68.0 °F 68.0 °F 100% 29.97 in 0.5 mi SSW 6.9 mph - N/A Fog Fog
3:18 AM 69.8 °F 68.0 °F 94% 29.97 in 1.5 mi South 8.1 mph - N/A   Overcast
3:28 AM 69.8 °F 68.0 °F 94% 29.97 in 2.0 mi SSW 5.8 mph - N/A   Overcast
3:41 AM 69.8 °F 68.0 °F 94% 29.97 in 5.0 mi South 5.8 mph - N/A   Overcast
3:53 AM 69.1 °F 68.0 °F 96% 29.97 in 6.0 mi South 8.1 mph - N/A   Overcast
4:20 AM 69.8 °F 68.0 °F 94% 29.98 in 2.0 mi South 5.8 mph - N/A   Overcast
4:35 AM 69.8 °F 68.0 °F 94% 29.98 in 1.5 mi South 5.8 mph - N/A   Overcast
4:53 AM 69.1 °F 69.1 °F 100% 29.98 in 1.8 mi SSW 6.9 mph - N/A   Overcast
5:09 AM 69.8 °F 68.0 °F 94% 29.99 in 0.5 mi SSW 4.6 mph - N/A Fog Fog
5:53 AM 69.1 °F 69.1 °F 100% 29.99 in 0.2 mi South 8.1 mph - N/A Fog Fog
6:43 AM 69.8 °F 69.8 °F 100% 30.00 in 1.5 mi South 9.2 mph - N/A   Overcast
6:53 AM 70.0 °F 69.1 °F 97% 30.00 in 2.0 mi South 8.1 mph - N/A   Overcast
7:19 AM 69.8 °F 69.8 °F 100% 30.01 in 4.0 mi South 8.1 mph - N/A   Overcast
7:30 AM 69.8 °F 69.8 °F 100% 30.01 in 1.8 mi South 8.1 mph - N/A   Overcast
7:45 AM 69.8 °F 69.8 °F 100% 30.01 in 0.5 mi South 8.1 mph - N/A Fog Fog
7:53 AM 69.1 °F 69.1 °F 100% 30.01 in 0.5 mi South 6.9 mph - 0.00 in Fog , Rain Light Rain
8:08 AM 69.8 °F 69.8 °F 100% 30.02 in 1.0 mi South 8.1 mph - 0.00 in Rain Light Rain
8:53 AM 70.0 °F 70.0 °F 100% 30.01 in 2.0 mi South 6.9 mph - 0.03 in Rain Rain
9:28 AM 69.8 °F 69.8 °F 100% 30.02 in 3.0 mi South 9.2 mph - 0.10 in Rain Light Rain
9:53 AM 70.0 °F 69.1 °F 97% 30.02 in 2.5 mi South 10.4 mph - 0.12 in Rain Light Rain
10:05 AM 69.8 °F 69.8 °F 100% 30.02 in 3.0 mi South 8.1 mph - 0.00 in Rain Light Rain
10:53 AM 71.1 °F 70.0 °F 96% 30.03 in 6.0 mi Variable 5.8 mph 16.1 mph 0.00 in   Overcast
11:15 AM 71.6 °F 69.8 °F 94% 30.04 in 1.8 mi SSW 6.9 mph - N/A   Overcast
11:25 AM 71.6 °F 69.8 °F 94% 30.04 in 0.5 mi SSW 8.1 mph - N/A Fog Fog
11:36 AM 71.6 °F 69.8 °F 94% 30.04 in 1.8 mi SSW 9.2 mph - N/A   Overcast
11:53 AM 71.1 °F 70.0 °F 96% 30.04 in 1.2 mi SSW 6.9 mph - N/A   Overcast
12:03 PM 71.6 °F 69.8 °F 94% 30.04 in 0.5 mi Variable 6.9 mph - N/A Fog Fog
12:53 PM 72.0 °F 71.1 °F 97% 30.04 in 0.8 mi South 6.9 mph - N/A   Overcast
1:21 PM 71.6 °F 71.6 °F 100% 30.04 in 1.5 mi South 9.2 mph - N/A   Overcast
1:34 PM 71.6 °F 71.6 °F 100% 30.05 in 3.0 mi South 9.2 mph - N/A   Overcast
1:53 PM 73.9 °F 71.1 °F 91% 30.04 in 6.0 mi South 10.4 mph - N/A   Overcast
2:19 PM 73.4 °F 71.6 °F 94% 30.05 in 6.0 mi South 10.4 mph - N/A   Overcast
2:53 PM 72.0 °F 71.1 °F 97% 30.04 in 3.0 mi South 10.4 mph 18.4 mph 0.02 in Rain Light Rain
3:03 PM 71.6 °F 71.6 °F 100% 30.05 in 5.0 mi South 9.2 mph 19.6 mph 0.00 in Rain Light Rain
3:44 PM 73.4 °F 71.6 °F 94% 30.04 in 8.0 mi SSW 9.2 mph - 0.00 in   Overcast
3:53 PM 73.9 °F 72.0 °F 93% 30.03 in 8.0 mi SSW 8.1 mph - 0.00 in   Overcast
4:53 PM 72.0 °F 70.0 °F 93% 30.05 in 8.0 mi SSW 10.4 mph 18.4 mph N/A   Overcast
5:37 PM 69.8 °F 69.8 °F 100% 30.06 in 1.8 mi Variable 4.6 mph - 0.01 in Rain Rain
5:45 PM 69.8 °F 69.8 °F 100% 30.06 in 1.5 mi SSW 8.1 mph - 0.02 in Rain Light Rain
5:50 PM 69.8 °F 69.8 °F 100% 30.06 in 3.0 mi South 8.1 mph - 0.02 in Rain Light Rain
5:53 PM 70.0 °F 69.1 °F 97% 30.05 in 3.0 mi South 6.9 mph - 0.02 in   Overcast
6:05 PM 69.8 °F 69.8 °F 100% 30.05 in 2.5 mi South 8.1 mph - N/A   Overcast
6:13 PM 69.8 °F 69.8 °F 100% 30.05 in 3.0 mi South 8.1 mph - N/A   Overcast
6:42 PM 69.8 °F 69.8 °F 100% 30.06 in 1.8 mi South 8.1 mph - N/A   Overcast
6:53 PM 70.0 °F 69.1 °F 97% 30.05 in 1.5 mi South 8.1 mph - N/A   Overcast
7:03 PM 69.8 °F 69.8 °F 100% 30.06 in 2.5 mi South 8.1 mph - N/A   Overcast
7:41 PM 69.8 °F 69.8 °F 100% 30.07 in 3.0 mi South 10.4 mph - N/A   Overcast
7:53 PM 70.0 °F 69.1 °F 97% 30.07 in 3.0 mi South 10.4 mph 17.3 mph N/A   Overcast
8:26 PM 71.6 °F 69.8 °F 94% 30.09 in 7.0 mi South 9.2 mph - N/A   Overcast
8:53 PM 71.1 °F 69.1 °F 93% 30.10 in 5.0 mi SSW 8.1 mph - 0.01 in   Overcast
9:08 PM 69.8 °F 69.8 °F 100% 30.11 in 6.0 mi SSW 6.9 mph - 0.00 in Rain Light Rain
9:53 PM 70.0 °F 69.1 °F 97% 30.11 in 6.0 mi South 6.9 mph - 0.00 in   Overcast
10:11 PM 69.8 °F 69.8 °F 100% 30.11 in 6.0 mi South 9.2 mph - N/A   Overcast
10:53 PM 70.0 °F 69.1 °F 97% 30.11 in 6.0 mi South 9.2 mph - N/A   Overcast
11:53 PM 70.0 °F 69.1 °F 97% 30.11 in 7.0 mi South 8.1 mph - N/A   Overcast